Regional Weather Roundup
Issued by NWS Little Rock, AR

Home | Current Version | Previous Version | Graphics & Text | Print | Product List | Glossary On
Versions: 1 2 3 4 5 6 7 8 9 10 11 12 13 14 15 16 17 18 19 20 21 22 23 24 25 26 27 28 29 30 31 32 33 34 35 36 37 38 39 40 41 42 43 44 45 46 47 48 49 50
157
ASUS44 KLZK 231305
RWRLZK

WEATHER ROUNDUP FOR ARKANSAS
NATIONAL WEATHER SERVICE LITTLE ROCK AR
700 AM CST THU FEB 23 2017

NOTE: "FAIR" INDICATES FEW OR NO CLOUDS BELOW 12,000 FEET WITH NO
SIGNIFICANT WEATHER AND/OR OBSTRUCTIONS TO VISIBILITY.

ARZ001-003-010-029-231400-
NORTHWEST ARKANSAS

CITY           SKY/WX    TMP DP  RH WIND       PRES   REMARKS
FAYETTEVILLE   CLOUDY    54  53  97 CALM      29.66F
FORT SMITH     CLOUDY    54  52  93 E9        29.68F
HARRISON       CLEAR     52  52 100 SE12      29.70F
BENTONVILLE    CLOUDY    55  52  88 SE10      29.66F
ROGERS         PTCLDY    53  52  96 SE10      29.67F
SILOAM SPGS    MOCLDY    57  52  82 SE10      29.64F
HIGHFILL       PTCLDY    55  53  93 SE7       29.65F
SPRINGDALE     CLEAR     57  54  88 SE6       29.68F
$$

ARZ004-005-016-231400-
NORTH CENTRAL ARKANSAS

CITY           SKY/WX    TMP DP  RH WIND       PRES   REMARKS
BATESVILLE     PTCLDY    54  52  94 SE8       29.76F
FLIPPIN        CLOUDY    48  43  81 CALM      29.70F VSB<1/4
MTN HOME       FOG       50  50 100 S3        29.72S VSB 1/4
$$

ARZ040-041-231400-
WEST CENTRAL ARKANSAS

CITY           SKY/WX    TMP DP  RH WIND       PRES   REMARKS
MENA           CLOUDY    50  48  93 CALM      29.74S VSB 1/4
MOUNT IDA      PTCLDY    49  48  97 CALM      29.71S FOG
$$

ARZ009-017-025-026-028-231400-
NORTHEAST ARKANSAS

CITY           SKY/WX    TMP DP  RH WIND       PRES   REMARKS
CORNING        FOG       52  52 100 SE8       29.78R VSB<1/4
JONESBORO      FOG       53  52  96 CALM      29.77S VSB 1/4
NEWPORT        FOG       50  50 100 S6          N/A  VSB<1/4
WALNUT RIDGE   CLOUDY    54  50  87 S5        29.77R VSB<1/4
BLYTHEVILLE    CLEAR     53  53 100 S7        29.79S
$$

ARZ022-023-033-042-044-231400-
CENTRAL ARKANSAS

CITY           SKY/WX    TMP DP  RH WIND       PRES   REMARKS
LITTLE ROCK    FOG       49  49 100 CALM      29.77S VSB 1/16
N LITTLE ROCK    N/A     52  51  97 CALM      29.77S
JACKSONVILLE   FOG       50  50 100 CALM      29.76S VSB<1/4
SEARCY         FOG       51  51 100 CALM      29.79S VSB<1/4
HOT SPRINGS    PTCLDY    51  50  96 E3        29.76R
RUSSELLVILLE   FOG       53  53 100 VRB5      29.73F VSB 1/2
CLINTON        FOG       54  54 100 CALM      29.76F VSB<1/4
$$

ARZ036-231400-
EAST ARKANSAS

CITY           SKY/WX    TMP DP  RH WIND       PRES   REMARKS
WEST MEMPHIS   FOG       51  51 100 S7        29.78S VSB 3/4
$$

ARZ050-053-066-070-073-231400-
SOUTHWEST ARKANSAS

CITY           SKY/WX    TMP DP  RH WIND       PRES   REMARKS
ARKADELPHIA    CLOUDY    47  47 100 NE3       29.77R
CAMDEN         FOG       48  46  93 SE5       29.77R VSB 1
TEXARKANA      CLEAR     55  54  96 S7        29.74R
EL DORADO      CLEAR     51  50  96 S3        29.77R
DE QUEEN       FOG       51  51 100 E3        29.72S VSB 1/2
$$

ARZ056-057-069-231400-
SOUTHEAST ARKANSAS

CITY           SKY/WX    TMP DP  RH WIND       PRES   REMARKS
PINE BLUFF     FOG       49  49 100 CALM      29.78S VSB 1/4
STUTTGART      PTCLDY    54  46  76 S6        29.78S
MONTICELLO     CLEAR     53  52  96 SE6       29.79R

$$






USA.gov is the U.S. government's official web portal to all federal, state and local government web resources and services.